TimeEDT,TemperatureF,Dew PointF,Humidity,Sea Level PressureIn,VisibilityMPH,Wind Direction,Wind SpeedMPH,Gust SpeedMPH,PrecipitationIn,Events,Conditions,WindDirDegrees,DateUTC
12:15 AM,37.4,35.6,93,29.86,10.0,NW,6.9,-,N/A,,Overcast,320,2013-05-26 04:15:00
12:35 AM,37.4,35.6,93,29.86,10.0,NNW,11.5,19.6,N/A,,Overcast,330,2013-05-26 04:35:00
12:55 AM,37.4,35.6,93,29.85,10.0,NNW,10.4,-,N/A,,Overcast,340,2013-05-26 04:55:00
1:15 AM,37.4,35.6,93,29.85,10.0,NNW,6.9,-,N/A,,Overcast,340,2013-05-26 05:15:00
1:35 AM,37.4,35.6,93,29.84,10.0,NNW,10.4,18.4,N/A,,Overcast,340,2013-05-26 05:35:00
1:55 AM,39.2,35.6,87,29.84,10.0,NNW,6.9,-,N/A,,Overcast,340,2013-05-26 05:55:00
2:15 AM,39.2,37.4,93,29.83,10.0,North,9.2,-,N/A,,Overcast,350,2013-05-26 06:15:00
2:35 AM,39.2,37.4,93,29.83,10.0,NNW,10.4,-,N/A,,Overcast,330,2013-05-26 06:35:00
2:55 AM,39.2,37.4,93,29.83,10.0,NNW,11.5,-,N/A,,Overcast,330,2013-05-26 06:55:00
3:15 AM,39.2,37.4,93,29.82,10.0,NNW,11.5,20.7,0.01,,Overcast,330,2013-05-26 07:15:00
3:35 AM,39.2,37.4,93,29.82,10.0,NW,13.8,21.9,0.01,,Overcast,320,2013-05-26 07:35:00
3:55 AM,39.2,37.4,93,29.82,10.0,NNW,11.5,20.7,0.01,,Overcast,330,2013-05-26 07:55:00
4:15 AM,39.2,35.6,87,29.83,10.0,NNW,10.4,25.3,N/A,,Overcast,330,2013-05-26 08:15:00
4:35 AM,39.2,35.6,87,29.83,10.0,NNW,13.8,21.9,N/A,,Overcast,330,2013-05-26 08:35:00
4:55 AM,39.2,35.6,87,29.83,10.0,NNW,12.7,20.7,N/A,,Overcast,330,2013-05-26 08:55:00
5:15 AM,39.2,35.6,87,29.84,10.0,NNW,10.4,19.6,N/A,,Overcast,330,2013-05-26 09:15:00
5:35 AM,39.2,37.4,93,29.84,9.0,NNW,12.7,19.6,N/A,,Overcast,330,2013-05-26 09:35:00
5:55 AM,39.2,35.6,87,29.84,9.0,NW,11.5,23.0,N/A,,Overcast,320,2013-05-26 09:55:00
6:15 AM,39.2,37.4,93,29.85,10.0,NW,12.7,18.4,N/A,,Overcast,320,2013-05-26 10:15:00
6:35 AM,39.2,37.4,93,29.86,10.0,NW,11.5,18.4,N/A,,Overcast,320,2013-05-26 10:35:00
6:55 AM,39.2,37.4,93,29.86,8.0,NW,11.5,17.3,N/A,,Overcast,320,2013-05-26 10:55:00
7:15 AM,39.2,37.4,93,29.86,7.0,NW,10.4,-,N/A,,Overcast,320,2013-05-26 11:15:00
7:35 AM,39.2,37.4,93,29.87,5.0,NNW,11.5,17.3,0.01,,Overcast,330,2013-05-26 11:35:00
7:55 AM,39.2,37.4,93,29.87,8.0,NNW,12.7,17.3,0.01,,Overcast,340,2013-05-26 11:55:00
8:15 AM,39.2,37.4,93,29.88,6.0,NNW,9.2,-,0.01,,Overcast,330,2013-05-26 12:15:00
8:35 AM,39.2,37.4,93,29.89,5.0,NNW,11.5,20.7,0.02,,Overcast,340,2013-05-26 12:35:00
8:55 AM,39.2,37.4,93,29.90,10.0,NNW,8.1,16.1,0.02,,Overcast,330,2013-05-26 12:55:00
9:15 AM,39.2,37.4,93,29.91,8.0,NNW,10.4,20.7,N/A,,Overcast,340,2013-05-26 13:15:00
9:35 AM,41.0,37.4,87,29.91,8.0,NNW,8.1,-,0.01,,Overcast,330,2013-05-26 13:35:00
9:55 AM,41.0,37.4,87,29.91,10.0,NW,11.5,19.6,0.01,,Overcast,320,2013-05-26 13:55:00
10:15 AM,41.0,37.4,87,29.92,10.0,North,13.8,20.7,N/A,,Overcast,350,2013-05-26 14:15:00
10:35 AM,41.0,37.4,87,29.92,9.0,NNW,9.2,-,N/A,,Overcast,330,2013-05-26 14:35:00
10:55 AM,42.8,39.2,87,29.92,10.0,NNW,6.9,-,N/A,,Overcast,340,2013-05-26 14:55:00
11:15 AM,42.8,37.4,81,29.93,10.0,NNW,9.2,-,N/A,,Overcast,340,2013-05-26 15:15:00
11:35 AM,42.8,39.2,87,29.93,10.0,North,9.2,16.1,0.01,,Overcast,360,2013-05-26 15:35:00
11:55 AM,42.8,39.2,87,29.94,10.0,NNW,8.1,-,0.01,,Overcast,330,2013-05-26 15:55:00
12:15 PM,44.6,37.4,76,29.94,10.0,NNW,9.2,17.3,N/A,,Overcast,330,2013-05-26 16:15:00
12:35 PM,44.6,39.2,81,29.94,10.0,NW,8.1,-,N/A,,Overcast,320,2013-05-26 16:35:00
12:55 PM,44.6,37.4,76,29.95,10.0,NNW,11.5,18.4,N/A,,Overcast,340,2013-05-26 16:55:00
1:15 PM,44.6,37.4,76,29.96,10.0,NNW,10.4,17.3,N/A,,Overcast,340,2013-05-26 17:15:00
1:35 PM,44.6,37.4,76,29.96,10.0,NNW,11.5,20.7,N/A,,Overcast,340,2013-05-26 17:35:00
1:55 PM,46.4,37.4,71,29.96,10.0,NNW,13.8,28.8,N/A,,Overcast,340,2013-05-26 17:55:00
2:15 PM,46.4,37.4,71,29.97,10.0,NW,13.8,26.5,N/A,,Overcast,320,2013-05-26 18:15:00
2:35 PM,46.4,35.6,66,29.98,10.0,NNW,17.3,25.3,N/A,,Mostly Cloudy,340,2013-05-26 18:35:00
2:55 PM,46.4,37.4,71,29.98,10.0,NNW,11.5,19.6,N/A,,Overcast,340,2013-05-26 18:55:00
3:15 PM,46.4,37.4,71,30.00,10.0,North,13.8,24.2,N/A,,Overcast,350,2013-05-26 19:15:00
3:35 PM,46.4,37.4,71,30.00,10.0,North,11.5,16.1,N/A,,Overcast,350,2013-05-26 19:35:00
3:55 PM,46.4,37.4,71,30.01,10.0,NW,15.0,21.9,N/A,,Overcast,320,2013-05-26 19:55:00
4:15 PM,46.4,37.4,71,30.03,10.0,NNW,12.7,20.7,N/A,,Overcast,340,2013-05-26 20:15:00
4:35 PM,44.6,37.4,76,30.05,10.0,NNW,10.4,19.6,N/A,,Overcast,330,2013-05-26 20:35:00
4:55 PM,44.6,39.2,81,30.05,10.0,NW,9.2,-,N/A,,Overcast,310,2013-05-26 20:55:00
5:15 PM,44.6,39.2,81,30.06,10.0,NW,9.2,-,N/A,,Overcast,320,2013-05-26 21:15:00
5:35 PM,44.6,39.2,81,30.06,10.0,NW,8.1,-,N/A,,Overcast,320,2013-05-26 21:35:00
5:55 PM,44.6,39.2,81,30.06,10.0,NNW,8.1,-,N/A,,Overcast,330,2013-05-26 21:55:00
6:15 PM,44.6,41.0,87,30.07,10.0,NNW,8.1,-,N/A,,Overcast,330,2013-05-26 22:15:00
6:35 PM,44.6,39.2,81,30.08,10.0,NNW,9.2,-,N/A,,Overcast,340,2013-05-26 22:35:00
6:55 PM,44.6,41.0,87,30.09,10.0,NNW,3.5,-,N/A,,Overcast,330,2013-05-26 22:55:00
7:15 PM,44.6,42.8,93,30.09,10.0,NNW,3.5,-,N/A,,Overcast,330,2013-05-26 23:15:00
7:35 PM,44.6,42.8,93,30.09,10.0,Calm,Calm,-,N/A,,Overcast,0,2013-05-26 23:35:00
7:55 PM,44.6,41.0,87,30.09,10.0,NNE,3.5,-,0.01,,Mostly Cloudy,20,2013-05-26 23:55:00
8:15 PM,44.6,41.0,87,30.08,10.0,Calm,Calm,-,N/A,,Mostly Cloudy,0,2013-05-27 00:15:00
8:35 PM,42.8,41.0,93,30.08,1.8,Calm,Calm,-,N/A,,Scattered Clouds,0,2013-05-27 00:35:00
8:55 PM,41.0,41.0,100,30.08,2.5,South,3.5,-,N/A,,Mostly Cloudy,180,2013-05-27 00:55:00
9:15 PM,41.0,39.2,93,30.09,1.5,SSE,3.5,-,N/A,,Mostly Cloudy,160,2013-05-27 01:15:00
9:35 PM,39.2,37.4,93,30.09,0.5,Calm,Calm,-,N/A,,Scattered Clouds,0,2013-05-27 01:35:00
9:55 PM,39.2,39.2,100,30.09,1.0,SSE,3.5,-,N/A,,Clear,160,2013-05-27 01:55:00
10:15 PM,39.2,37.4,93,30.10,1.2,SSE,4.6,-,N/A,,Scattered Clouds,160,2013-05-27 02:15:00
10:35 PM,37.4,35.6,93,30.10,0.2,Calm,Calm,-,N/A,,Overcast,0,2013-05-27 02:35:00
10:55 PM,37.4,35.6,93,30.10,1.2,SE,4.6,-,N/A,,Mostly Cloudy,140,2013-05-27 02:55:00
11:15 PM,37.4,37.4,100,30.10,3.0,SE,3.5,-,N/A,,Partly Cloudy,140,2013-05-27 03:15:00
11:35 PM,37.4,37.4,100,30.11,8.0,Calm,Calm,-,N/A,,Partly Cloudy,0,2013-05-27 03:35:00
11:55 PM,37.4,37.4,100,30.10,3.0,SSE,5.8,-,N/A,,Scattered Clouds,150,2013-05-27 03:55:00